Regional Weather Roundup
Issued by NWS

Home | Current Version | Previous Version | Graphics & Text | Print | Product List | Glossary On
Versions: 1 2 3 4 5 6 7 8 9 10 11 12 13 14 15 16 17 18 19 20 21 22 23 24 25 26 27 28 29 30 31 32 33 34 35 36 37 38 39 40 41 42 43 44 45 46 47 48 49 50
000
ASUS43 KFSD 290510
RWRSD

WEATHER ROUNDUP FOR SOUTH DAKOTA
NATIONAL WEATHER SERVICE SIOUX FALLS SD
1100 PM CST WED JAN 28 2015

NOTE: "FAIR" INDICATES FEW OR NO CLOUDS BELOW 12,000 FEET WITH NO
SIGNIFICANT WEATHER AND/OR OBSTRUCTIONS TO VISIBILITY.


SDZ001>005-009-010-012>017-290600-
NORTHWEST AND NORTH CENTRAL SOUTH DAKOTA

CITY           SKY/WX    TMP DP  RH WIND       PRES   REMARKS
BUFFALO          N/A     32  26  78 NW17      30.23R WCI  21
FAITH            N/A     34  25  69 NW28G37   30.25R WCI  21
MOBRIDGE       CLOUDY    35  29  78 NW18G30   30.17R WCI  24
$$

SDZ012>016-024>037-041>051-057-063-072>074-290600-
SOUTHWEST AND SOUTH CENTRAL SOUTH DAKOTA

CITY           SKY/WX    TMP DP  RH WIND       PRES   REMARKS
RAPID CTY ARPT MOCLDY    32  27  81 N21       30.28R WCI  20
PIERRE         CLOUDY    36  29  75 NW26      30.18R
CUSTER         CLEAR     30  12  47 NW5       30.23R WCI  25
ELLSWORTH AFB  MOCLDY    33  28  81 N26       30.27  WCI  19
PHILIP         CLOUDY    37  27  67 NW18G26   30.26R
PINE RIDGE     CLEAR     33  26  75 N15       30.27R WCI  23
WINNER         CLOUDY    37  30  75 NW25      30.18R
$$

SDZ004>011-016>023-039-040-290600-
NORTHEAST SOUTH DAKOTA

CITY           SKY/WX    TMP DP  RH WIND       PRES   REMARKS
ABERDEEN       CLOUDY    33  27  78 NW24G33   30.12R WCI  20
WATERTOWN      CLOUDY    31  28  89 NW24G33   30.01R WCI  17
SISSETON         N/A     31  30  96 N24       30.02R WCI  17
$$

SDZ017-020-022-023-036>040-048>070-290600-
SOUTHEAST SOUTH DAKOTA

CITY           SKY/WX    TMP DP  RH WIND       PRES   REMARKS
SIOUX FALLS    CLOUDY    34  30  85 N26G36    29.98R WCI  21
HURON          CLOUDY    33  28  81 N23G35    30.09R WCI  21
CHAMBERLAIN    CLOUDY    34  28  80 NW21G30   30.16R WCI  22
MITCHELL       CLOUDY    34  29  82 NW26G33   30.10R WCI  21
YANKTON        CLOUDY   N/A N/A N/A NW24G39   30.04R
$$

ABBREVIATIONS USED IN REMARKS
   TC - TEMPERATURE IN CELSIUS
  WCI - WIND CHILL INDEX
   HX - HEAT INDEX
  VSB - VISIBILITY



USA.gov is the U.S. government's official web portal to all federal, state and local government web resources and services.